Погода в Осташкове

Погода в Осташкове : погода сейчас, прогноз погоды и архив. Всё, что Вы хотите узнать о погоде в Осташкове!

Поиск расширенной информации на нашем сайте:

Другие новости

Новости СМИ2

Главная страница сайта

Новости сайта

03.07.2017

Напоминаем, что на нашем специализированном сайте Метеоцентр.Азия вы можете получить высокодетализированные автоматические прогнозы погоды по пунктам России, СНГ и мира в авиационном формате (включающие направление и скорость ветра, видимость, явления погоды, количество и форму облачности, нижнюю и верхнюю границу облачности).


Погода в Осташкове - сегодня

Время (UTC), дата Ветер
(°,м/с) 
Видим.   Явления Облачность Т
(°С)
Тd
(°С)
f(%) Тe
(°С)
Pmin
(гПа)
dP
(гПа)
Po
(мм)
O2
(г/м3)
Тmin Tmax R s Состояние
почвы
21 15.06.18 тихо ()   10 км    3/0 верхняя 
[Ci fib]
+10.8 +7.7 81 +11  1019.4  745  288           
09 16.06.18 150 (ЮВ) 10 км    3/0 средняя 
[Ac trans]
+21.4 +5.3 35 +21  1020.1  -0.2  746  278           
12 16.06.18 180 (Ю) 10 км    8/8 600 м 
[Sc]
+20.3 +7.6 44 +20  1019.6  -0.5  746  279           
15 16.06.18 тихо ()   10 км    8/8 600 м 
[Sc]
+17.8 +11.5 67 +21  1019.5  -0.3  746  280           
21 16.06.18 тихо ()   10 км    9/9 600 м 
[Sc]
+15.5 +10.9 74 +18  1019.4  746  282           
00 17.06.18 тихо ()   10 км    9/9 600 м 
[Sc]
+12.5 +9.5 82 +13  1019.9  0.2  746  286           
09 17.06.18 160 (Ю) 10 км    8/8 600 м 
[Sc]
+21.7 +9.3 45 +22  1019.2  -0.2  746  277           
12 17.06.18 190 (Ю) 10 км    9/9 600 м 
[Sc]
+21.2 +10.8 51 +24  1018.5  -0.7  745  277           
21 17.06.18 тихо ()   10 км    9/9 600 м 
[Sc]
+16.2 +12.5 79 +21  1017.4  744  281           
09 18.06.18 170 (Ю) 10 км    6/3 1000 м средняя 
[Cu hum|Ac trans]
+25.7 +12.2 43 +30  1014.6  -0.5  743  271           
12 18.06.18 190 (Ю) 10 км    8/6 1000 м средняя 
[Cu med, cong|Ac trans]
+27.1 +13.5 43 +34  1013.9  -0.6  742  269           
15 18.06.18 270 (З) 10 км    6/6 1000 м 
[Cu med, cong]
+24.1 +13 50 +30  1013.5  -0.5  742  272           
21 18.06.18 200 (Ю) 4000 м  дымка  3/0 средняя 
[Ac trans]
+14.5 +12.7 89 +21  1014.3  0.2  742  281           
09 19.06.18 230 (ЮЗ) 10 км    8/0 средняя 
[Ac trans]
+20.7 +12.2 58 +25  1012.4  -0.9  741  275           
12 19.06.18 240 (ЮЗ) 10 км    3/0 средняя 
[Ac trans]
+23.1 +9.9 43 +24  1010.4  -1.8  739  273           
06 20.06.18 240 (ЮЗ) 4{13}  10 км    4/4 1000 м 
[Cu med, cong]
+16.4 +9.4 63 +17  1009.8  -0.1  739  279  +11.2    0.3    сухая 
21 20.06.18 220 (ЮЗ) 1{10}  10 км    4/4 600 м 
[Sc]
+11.8 +6.9 72 +13  1011.4  0.5  739  284           
00 21.06.18 240 (ЮЗ) 10 км    8/8 600 м 
[Sc]
+12.6 +6.8 68 +13  1011.5  0.2  740  284           
06 21.06.18 210 (ЮЗ) 10 км  слаб. ливневой дождь  10/10 300 м кучево-дожд. 
[Cb cap]
+12.7 +9.9 83 +15  1011.6  0.4  740  283  +10.9    0.3    влажная 
09 21.06.18 240 (ЮЗ) 10 км  {ливн. осадки}  10/10 300 м 
[St]
+15.2 +11.8 80 +19  1011.3  740  280           
15 21.06.18 170 (Ю) 10 км    6/6 600 м 
[Sc]
+23.3 +14.4 57 +31  1008.8  -1.2  738  271      0.3     
21 21.06.18 160 (Ю) 10 км    ясно 
+16 +12.8 81 +23  1008  -0.6  737  278           
00 22.06.18 170 (Ю) 10 км    4/4 600 м 
[Sc]
+17.7 +12.6 72 +24  1006.1  -1.7  736  276           
09 22.06.18 220 (ЮЗ) 10 км    8/0 средняя 
[Ac trans]
+22.6 +15.4 64 +33  1003.1  0.5  734  270           
15 22.06.18 210 (ЮЗ) 10 км    9/9 300 м 
[St]
+14.8 +11.7 82 +20  1007.6  2.1  737  279      0.3     
Время (UTC), дата Ветер
(°,м/с) 
Видим.   Явления Облачность Т
(°С)
Тd
(°С)
f(%) Тe
(°С)
Pmin
(гПа)
dP
(гПа)
Po
(мм)
O2
(г/м3)
Тmin Tmax R s Состояние
почвы

Для получения пояснительной информации подведите курсор к названию столбца.

ПОГОДА в Осташкове - архив

Всё, что Вы хотите узнать о погоде в Осташкове - удобно и подробно!

Выберите нужную дату (начиная с 1 января 2015* года) и нажмите кнопку "Найти".
Будут отображены архивные сводки погоды по пункту Осташков, начиная с указанной даты.


Отображать данные в формате CSV (для использования в таблицах Excel)


Внимание! Наш архив погоды предназначен исключительно для личного некоммерческого использования в познавательных целях. Если Вам необходимы официальные справки о состоянии погоды (для производственных, юридических, коммерческих и т.п. целей), обращайтесь в органы Росгидромета.

*Примечание: данная дата относится к архиву по метеостанциям СССР (Россия, СНГ, Балтия).
Архив по метеостанциям Зарубежной Европы и Азии (кроме Китая) хранится 10 дней, по другим регионам земного шара (Китай, Африка, Америка, Австралия, Океания) - 1 день.

Осташков - район местоположения метеостанции


Название, широта, долгота, высота метеостанции:
Осташков 57.1°ш. 33.1°д. 218 м над ур. моря [Российская Федерация]

Дополнительная информация

В oтличие oт бoльшинства пoгoдных сайтoв мы публикуем пoдрoбную метеoинфoрмацию в детальнoм прoфессиoнальнoм фoрмате.

Характеристики температуры и влажнoсти вoздуха измеряются на высoте 2 м в тени вдали oт зданий и деревьев.
Скoрoсть ветра измеряется на высoте 10 м (на урoвне рoста челoвека скoрoсть ветра ниже в 1.5-2 раза). Если метеoстанция нахoдится в гoрoде или в лесу, тo скoрoсть ветра занижена на 2-4 м/с пo сравнению с oткрытым местoм. Скoрoсть ветра над акватoриями крупных рек и oзёр, а также на вершинах хoлмoв на 2-5 м/с выше, чем в oбычных услoвиях.
Атмoсфернoе давление в разных тoчках местнoсти мoжет значительнo oтличаться oт давления на метеoстанции, в зависимoсти oт услoвий рельефа (при пoдъёме на 10 м давление пoнижается примернo на 1 мм рт.ст.).